Weather History for Three Rivers, MI

Change the Weather History Date:

Monday, April 7, 2014

  Actual Average Record
Temperature  
Mean Temperature 44 °F -  
Max Temperature 54 °F 56 °F 81 °F (1954)
Min Temperature 33 °F 31 °F 7 °F (1982)
Degree Days  
Heating Degree Days 22    
Moisture  
Dew Point 31 °F    
Average Humidity 66    
Maximum Humidity 89    
Minimum Humidity 33    
Precipitation  
Precipitation 0.00 in - - ()
Sea Level Pressure  
Sea Level Pressure 29.75 in    
Wind  
Wind Speed 4 mph (NE)    
Max Wind Speed 13 mph    
Max Gust Speed -    
Visibility 8 miles    
Events Rain    
Averages and records for this station are not official NWS values.
T = Trace of Precipitation, MM = Missing Value Source: NWS Daily Summary

Daily Weather History Graph

Daily Weather History Graph

Search for Another Location

Airport:

Trip Planner

Search our weather history database for the weather conditions in past years. The results will help you decide how hot, cold, wet, or windy it might be!

Date:

Astronomy

Apr. 07, 2014 Rise Set
Actual Time 7:15 AM EDT 8:14 PM EDT
Civil Twilight 6:46 AM EDT 8:43 PM EDT
Nautical Twilight 6:12 AM EDT 9:17 PM EDT
Astronomical Twilight 5:37 AM EDT 9:52 PM EDT
Moon 1:07 PM EDT (4/7) 2:54 AM EDT (4/7)
Length of Visible Light 13h 56m
Length of Day
12h 59m
First Quarter, 53% of the Moon is Illuminated
Apr 7
First Quarter
Apr 15
Full
Apr 22
Last Quarter
Apr 29
New
May 6
First Quarter

Hourly Weather History & Observations

Time (EDT) Temp. Windchill Dew Point Humidity Pressure Visibility Wind Dir Wind Speed Gust Speed Precip Events Conditions
12:15 AM 38.1 °F - 28.0 °F 67% 30.00 in 10.0 mi Calm Calm - N/A   Clear
12:34 AM 37.6 °F - 31.1 °F 77% 29.99 in 10.0 mi Calm Calm - N/A   Clear
12:55 AM 36.1 °F 33.5 °F 30.4 °F 80% 29.98 in 10.0 mi NE 3.5 mph - N/A   Clear
1:15 AM 35.8 °F 33.0 °F 30.4 °F 81% 29.98 in 10.0 mi East 3.5 mph - N/A   Clear
1:35 AM 38.3 °F 33.9 °F 28.9 °F 69% 29.97 in 10.0 mi East 5.8 mph - N/A   Clear
1:55 AM 41.7 °F 38.0 °F 29.3 °F 61% 29.97 in 10.0 mi ESE 5.8 mph - N/A   Clear
2:15 AM 41.5 °F 37.8 °F 28.9 °F 61% 29.96 in 10.0 mi ESE 5.8 mph - N/A   Clear
2:35 AM 40.3 °F 37.1 °F 28.9 °F 64% 29.95 in 10.0 mi ESE 4.6 mph - N/A   Clear
2:55 AM 39.7 °F 35.6 °F 29.1 °F 66% 29.95 in 10.0 mi ESE 5.8 mph - N/A   Clear
3:15 AM 39.6 °F 35.4 °F 28.6 °F 65% 29.93 in 10.0 mi ESE 5.8 mph - N/A   Clear
3:35 AM 39.0 °F 35.7 °F 28.0 °F 65% 29.92 in 10.0 mi East 4.6 mph - N/A   Clear
3:55 AM 37.9 °F 34.4 °F 27.5 °F 66% 29.90 in 10.0 mi East 4.6 mph - N/A   Clear
4:14 AM 36.7 °F - 27.7 °F 70% 29.90 in 10.0 mi Calm Calm - N/A   Clear
4:35 AM 36.7 °F - 27.3 °F 69% 29.89 in 10.0 mi Calm Calm - N/A   Clear
4:55 AM 35.1 °F - 27.1 °F 73% 29.89 in 10.0 mi Calm Calm - N/A   Clear
5:14 AM 33.6 °F 30.6 °F 27.3 °F 78% 29.87 in 10.0 mi NNE 3.5 mph - N/A   Clear
5:35 AM 34.7 °F 31.8 °F 28.0 °F 77% 29.85 in 10.0 mi NE 3.5 mph - N/A   Clear
5:55 AM 34.3 °F 31.4 °F 27.9 °F 77% 29.85 in 10.0 mi ENE 3.5 mph - N/A   Clear
6:14 AM 34.7 °F 31.8 °F 27.5 °F 75% 29.86 in 10.0 mi ENE 3.5 mph - N/A   Clear
6:35 AM 35.1 °F - 27.7 °F 74% 29.85 in 10.0 mi Calm Calm - N/A   Clear
6:55 AM 35.8 °F - 27.5 °F 72% 29.86 in 10.0 mi Calm Calm - N/A   Clear
7:15 AM 36.7 °F 34.1 °F 27.1 °F 68% 29.86 in 10.0 mi NNE 3.5 mph - N/A   Clear
7:35 AM 36.1 °F 33.5 °F 27.9 °F 72% 29.86 in 10.0 mi North 3.5 mph - N/A   Clear
7:55 AM 36.5 °F 32.7 °F 27.9 °F 71% 29.86 in 10.0 mi NNW 4.6 mph - N/A   Clear
8:15 AM 37.4 °F - 27.3 °F 67% 29.87 in 10.0 mi Calm Calm - N/A   Clear
8:35 AM 37.8 °F 35.3 °F 28.2 °F 68% 29.87 in 10.0 mi North 3.5 mph - N/A   Clear
8:54 AM 37.6 °F - 28.0 °F 68% 29.86 in 10.0 mi Calm Calm - N/A   Scattered Clouds
9:15 AM 38.1 °F 35.7 °F 29.7 °F 72% 29.85 in 10.0 mi North 3.5 mph - N/A   Scattered Clouds
9:34 AM 39.2 °F 35.9 °F 29.1 °F 67% 29.85 in 10.0 mi ENE 4.6 mph - N/A   Mostly Cloudy
9:54 AM 40.1 °F 36.9 °F 28.2 °F 63% 29.84 in 10.0 mi NE 4.6 mph - N/A   Mostly Cloudy
10:15 AM 40.6 °F 37.5 °F 28.4 °F 62% 29.82 in 10.0 mi NE 4.6 mph - N/A   Overcast
10:35 AM 41.0 °F 37.1 °F 28.6 °F 61% 29.81 in 10.0 mi NE 5.8 mph - N/A   Overcast
10:55 AM 41.9 °F 38.2 °F 28.2 °F 58% 29.80 in 10.0 mi ENE 5.8 mph - N/A   Overcast
11:15 AM 44.1 °F 39.5 °F 29.7 °F 57% 29.77 in 10.0 mi ENE 8.1 mph - N/A   Overcast
11:34 AM 46.6 °F - 29.7 °F 52% 29.76 in 10.0 mi ENE 8.1 mph - N/A   Mostly Cloudy
11:55 AM 49.6 °F - 28.9 °F 45% 29.73 in 10.0 mi ENE 9.2 mph - N/A   Scattered Clouds
12:15 PM 49.3 °F - 27.5 °F 43% 29.73 in 10.0 mi ENE 8.1 mph - N/A   Mostly Cloudy
12:34 PM 50.0 °F - 29.7 °F 46% 29.71 in 10.0 mi NNE 8.1 mph - N/A   Overcast
12:55 PM 52.3 °F - 26.2 °F 36% 29.70 in 10.0 mi ENE 12.7 mph - N/A   Overcast
1:15 PM 53.6 °F - 25.7 °F 34% 29.69 in 10.0 mi ENE 8.1 mph - N/A   Overcast
1:34 PM 53.8 °F - 25.9 °F 34% 29.68 in 10.0 mi NE 11.5 mph - N/A   Overcast
1:55 PM 53.8 °F - 25.3 °F 33% 29.67 in 10.0 mi NE 9.2 mph - N/A   Overcast
2:15 PM 54.0 °F - 25.3 °F 33% 29.65 in 10.0 mi NE 10.4 mph - N/A   Overcast
2:34 PM 53.6 °F - 24.8 °F 33% 29.64 in 10.0 mi NE 11.5 mph - N/A   Overcast
2:55 PM 53.6 °F - 25.7 °F 34% 29.63 in 10.0 mi NNE 8.1 mph - N/A   Overcast
3:15 PM 53.2 °F - 26.4 °F 35% 29.62 in 10.0 mi NNE 10.4 mph - N/A   Overcast
3:35 PM 52.7 °F - 25.9 °F 35% 29.61 in 10.0 mi NNE 9.2 mph - N/A   Overcast
4:15 PM 51.4 °F - 27.3 °F 39% 29.61 in 10.0 mi NE 5.8 mph - N/A Rain Light Rain
4:35 PM 50.4 °F - 30.0 °F 46% 29.62 in 10.0 mi NNE 6.9 mph - N/A   Light Drizzle
4:55 PM 49.3 °F - 31.8 °F 51% 29.62 in 10.0 mi NNE 5.8 mph - N/A Rain Light Rain
5:14 PM 46.8 °F - 34.0 °F 61% 29.62 in 7.0 mi NNE 5.8 mph - N/A Rain Rain
5:35 PM 45.1 °F 40.3 °F 36.1 °F 71% 29.60 in 2.0 mi North 9.2 mph - N/A   Overcast
5:55 PM 44.6 °F 42.2 °F 37.6 °F 76% 29.60 in 5.0 mi NNE 4.6 mph - N/A Rain Rain
6:14 PM 44.2 °F 42.7 °F 37.4 °F 77% 29.60 in 5.0 mi NE 3.5 mph - N/A Rain Rain
6:35 PM 43.9 °F 42.3 °F 38.3 °F 81% 29.61 in 4.0 mi NE 3.5 mph - N/A Rain Rain
6:54 PM 43.7 °F 42.1 °F 38.7 °F 82% 29.61 in 4.0 mi ENE 3.5 mph - N/A Rain Rain
7:15 PM 43.7 °F 42.1 °F 38.7 °F 82% 29.60 in 4.0 mi NE 3.5 mph - N/A Rain Rain
7:35 PM 43.3 °F 40.7 °F 38.7 °F 84% 29.59 in 4.0 mi North 4.6 mph - N/A Rain Light Rain
7:54 PM 43.2 °F 40.5 °F 38.8 °F 85% 29.59 in 5.0 mi North 4.6 mph - N/A Rain Rain
8:15 PM 43.0 °F 40.3 °F 39.0 °F 86% 29.58 in 5.0 mi NNW 4.6 mph - N/A Rain Light Rain
8:35 PM 43.2 °F 41.5 °F 39.4 °F 86% 29.58 in 5.0 mi North 3.5 mph - N/A Rain Light Rain
8:54 PM 43.0 °F 41.3 °F 39.2 °F 86% 29.58 in 5.0 mi North 3.5 mph - N/A Rain Light Rain
9:15 PM 42.8 °F - 39.0 °F 86% 29.58 in 7.0 mi Calm Calm - N/A Rain Light Rain
9:35 PM 42.6 °F - 38.8 °F 86% 29.59 in 5.0 mi Calm Calm - N/A Rain Light Rain
9:54 PM 42.3 °F - 39.2 °F 89% 29.58 in 4.0 mi Calm Calm - N/A Rain Light Rain
10:15 PM 42.8 °F - 39.6 °F 88% 29.58 in 5.0 mi Calm Calm - N/A   Overcast
10:35 PM 43.2 °F - 39.6 °F 87% 29.57 in 7.0 mi Calm Calm - N/A   Overcast
10:55 PM 42.3 °F 40.5 °F 38.8 °F 88% 29.56 in 4.0 mi NW 3.5 mph - N/A   Overcast
11:15 PM 42.3 °F 40.5 °F 39.2 °F 89% 29.56 in 5.0 mi West 3.5 mph - N/A   Overcast
11:35 PM 42.1 °F 37.7 °F 39.0 °F 89% 29.56 in 5.0 mi WNW 6.9 mph - N/A   Overcast
11:55 PM 42.1 °F 37.7 °F 38.7 °F 88% 29.56 in 7.0 mi WNW 6.9 mph - N/A   Overcast